FW4335 Weather Reports


time (UTC)temp
C
wind
direction
speed
KPH
gust
KPH
rain 1hr
cm
rain 24hr
cm
rain mn
cm
humidity
%
barometer
mb
20260504050142 15 247 0.0 3.2 0.00 0.00 0.00 73 1011.6
20260504044531 15 247 0.0 1.6 0.00 0.00 0.00 72 1011.4
20260504043038 16 218 0.0 4.8 0.00 0.00 0.00 70 1011.2
20260504041534 16 218 0.0 4.8 0.00 0.00 0.00 66 1010.9
20260504040046 17 218 1.6 6.4 0.00 0.00 0.00 64 1010.8
20260504034531 18 202 0.0 3.2 0.00 0.00 0.00 61 1010.5
20260504033031 20 202 1.6 4.8 0.00 0.00 0.00 57 1010.3
20260504031531 21 205 1.6 3.2 0.00 0.00 0.00 54 1010.2
20260504030030 22 197 3.2 4.8 0.00 0.00 0.00 51 1010.0
20260504024531 25 192 1.6 4.8 0.00 0.00 0.00 43 1009.9
20260504023134 26 45 0.0 3.2 0.00 0.00 0.00 36 1009.8
20260504021532 27 45 0.0 1.6 0.00 0.00 0.00 33 1009.9
20260504020029 27 32 0.0 4.8 0.00 0.00 0.00 30 1010.1
20260504014532 28 37 1.6 8.0 0.00 0.00 0.00 31 1010.2
20260504013034 28 40 0.0 8.0 0.00 0.00 0.00 29 1010.3
20260504011537 29 46 1.6 6.4 0.00 0.00 0.00 28 1010.4
20260504010029 29 13 1.6 8.0 0.00 0.00 0.00 28 1010.6
20260504004610 30 12 0.0 4.8 0.00 0.00 0.00 28 1010.7
20260504003036 30 13 0.0 4.8 0.00 0.00 0.00 27 1010.8
20260504001607 30 43 0.0 9.7 0.00 0.00 0.00 25 1010.9
20260504000033 30 53 1.6 8.0 0.00 0.00 0.00 25 1011.1
20260503234534 31 71 3.2 11.3 0.00 0.00 0.00 24 1011.2
20260503233116 30 84 0.0 4.8 0.00 0.00 0.00 25 1011.5
20260503231530 30 38 1.6 4.8 0.00 0.00 0.00 24 1011.6
20260503230029 31 113 3.2 9.7 0.00 0.00 0.00 23 1012.0
20260503224650 30 73 1.6 9.7 0.00 0.00 0.00 24 1012.3
20260503221535 30 110 4.8 14.5 0.00 0.00 0.00 23 1012.8
20260503220107 30 102 3.2 11.3 0.00 0.00 0.00 24 1013.0
20260503214529 30 104 3.2 11.3 0.00 0.00 0.00 24 1013.2
20260503213030 30 105 6.4 16.1 0.00 0.00 0.00 23 1013.4
20260503211528 30 83 4.8 20.9 0.00 0.00 0.00 24 1013.7
20260503210031 30 101 6.4 17.7 0.00 0.00 0.00 25 1013.8
20260503204536 30 60 6.4 14.5 0.00 0.00 0.00 27 1014.0
20260503203037 30 82 4.8 14.5 0.00 0.00 0.00 28 1014.1
20260503201535 30 103 4.8 16.1 0.00 0.00 0.00 30 1014.3
20260503200038 29 67 3.2 12.9 0.00 0.00 0.00 36 1014.4
20260503194529 28 329 1.6 6.4 0.00 0.00 0.00 40 1014.6
20260503191536 27 349 1.6 6.4 0.00 0.00 0.00 42 1014.9
20260503190030 27 358 1.6 6.4 0.00 0.00 0.00 45 1015.2
20260503184535 26 22 0.0 6.4 0.00 0.00 0.00 46 1015.4
20260503181534 26 296 0.0 6.4 0.00 0.00 0.00 48 1015.7
20260503180036 25 341 0.0 4.8 0.00 0.00 0.00 49 1015.8
20260503173037 24 27 0.0 6.4 0.00 0.00 0.00 48 1016.2
20260503171530 22 24 0.0 3.2 0.00 0.00 0.00 51 1016.3
20260503081534 11 225 0.0 3.2 0.00 0.00 0.00 91 1016.5
20260503071533 11 225 1.6 4.8 0.00 0.00 0.00 89 1016.5
20260503054532 13 202 0.0 3.2 0.00 0.00 0.00 86 1016.4
20260503053030 13 202 0.0 3.2 0.00 0.00 0.00 85 1016.4
20260503051535 13 208 1.6 4.8 0.00 0.00 0.00 85 1016.3